Voltar ao catálogo

FENGYUN 1C DEB

LostPO
NORAD 38822·DEBRIS·🇨🇳 China

Lançado May 10, 1999 de Taiyuan Satellite Launch Center

Loading…

Próximas Passagens (próximas 24 horas)

TLE

ObsoletoSource: Space-Track

Época: Sep 21, 2023, 07:59 UTC

1 38822U 99025EVN 23264.33292275  .00004946  00000-0  32077-2 0  9992
2 38822  98.1334 298.3279 0118987  90.3339 271.1463 13.99595940482017

Acompanhe FENGYUN 1C DEB em tempo real com AllMySat

Download on the App Store